[[{"header":{"parameterUnit":"m.s-1","parameterCategory":1,"la1":30.2992,"la2":30.254,"lo1":-89.0895,"lo2":-89.0443,"dy":0.0025,"dx":0.0025,"nx":19,"ny":19,"refTime":"2026-05-23T09:00:00:Z","depth":0,"parameterNumber":2,"parameterNumberName":"U-component_of_WINDS"},"data":[0,0,0,-4.0133,-4.0134,-4.0163,-4.0163,-4.0217,-4.0218,0,0,0,0,0,0,0,0,0,0,0,-4.0134,-4.0135,-4.0133,-4.0134,-4.0163,-4.0163,-4.0217,-4.0218,0,0,0,0,0,0,0,0,0,0,0,-4.0134,-4.0135,-4.0136,-4.0134,-4.0163,-4.0163,-4.0217,-4.0189,0,0,0,0,0,0,0,0,0,0,-4.0157,-4.0169,-4.0135,-4.0136,-4.0134,-4.0163,-4.0163,-4.0187,-4.0191,-4.0211,0,-4.0233,0,-4.0226,-4.0223,-4.0223,0,0,0,-4.0126,-4.0167,-4.0165,-4.0136,-4.0134,-4.0163,-4.0148,-4.0189,-4.0193,-4.0216,-4.0233,-4.0235,-4.0227,-4.0223,-4.0223,-4.0368,-4.0369,0,0,-4.0124,-4.0146,-4.0162,-4.0168,-4.0165,-4.0147,-4.0149,-4.0191,-4.0211,-4.0233,-4.0236,-4.0228,-4.0224,-4.0224,-4.0367,-4.0368,0,0,0,-4.0125,-4.0145,-4.0142,-4.0166,-4.017,-4.0148,-4.015,-4.0209,-4.0207,-4.0236,-4.0229,-4.0224,-4.0225,-4.0365,-4.0367,-4.0438,0,0,0,-4.0123,-4.0145,-4.0141,-4.0155,-4.017,-4.0191,-4.0168,-4.0204,-4.0208,-4.0228,-4.0224,-4.0226,-4.0364,-4.0366,-4.0433,-4.0467,0,0,0,-4.0129,-4.0146,-4.0153,-4.0156,-4.0169,-4.0189,-4.0189,-4.0204,-4.0204,-4.0223,-4.0226,-4.0363,-4.0366,-4.0429,-4.046,-4.0509,0,0,0,-4.0141,-4.0218,-4.0155,-4.0237,-4.0169,-4.0234,-4.0188,-4.0235,-4.026,-4.0224,-4.0364,-4.0367,-4.0428,-4.0456,-4.0505,-4.0552,-4.0575,0,0,-4.0249,-4.0232,-4.0278,-4.0223,-4.0303,-4.0227,-4.0318,-4.0321,-4.0304,-4.0347,-4.035,-4.0435,-4.046,-4.0508,-4.0697,-4.0714,0,0,0,-4.032,-4.0353,-4.037,-4.0394,-4.0398,-4.0403,-4.039,-4.0391,-4.0426,-4.0331,-4.0466,-4.048,-4.0508,-4.0529,-4.0544,-4.0565,-4.0378,-4.0378,-4.0378,-4.0503,-4.0476,-4.055,-4.0526,-4.055,-4.0535,-4.0551,-4.055,-4.0517,-4.0549,-4.0561,-4.0678,-4.0705,-4.0716,-4.0738,-4.0586,-4.0586,-4.0586,-4.0586,-4.0657,-4.0699,-4.0651,-4.0706,-4.0676,-4.0722,-4.071,-4.0684,-4.0721,-4.0668,-4.069,-4.0632,-4.0736,-4.0754,-4.0591,-4.0591,-4.059,-4.0589,-4.0589,-4.0773,-4.0787,-4.0787,-4.0817,-4.0844,-4.0817,-4.0854,-4.0827,-4.0801,-4.0824,-4.0832,-4.0831,-4.0824,-4.083,-4.0831,-4.0831,-4.0831,-4.0832,-4.0832,-4.0892,-4.0888,-4.0923,-4.0932,-4.0942,-4.0953,-4.0938,-4.0947,-4.0951,-4.0927,-4.0927,-4.0889,-4.0753,-4.0717,-4.0838,-4.0837,-4.0836,-4.0836,-4.0835,-4.1054,-4.1012,-4.1066,-4.1076,-4.1083,-4.111,-4.1074,-4.1096,-4.11,-4.1119,-4.1076,-4.098,-4.096,-4.0947,-4.0918,-4.1083,-4.1083,-4.1083,-4.1083,-4.115,-4.1137,-4.1183,-4.1201,-4.1216,-4.1189,-4.1248,-4.1236,-4.1218,-4.1218,-4.1191,-4.115,-4.1139,-4.1125,-4.1109,-4.108,-4.1283,-4.1284,-4.1284,-4.1247,-4.1234,-4.1289,-4.127,-4.1272,-4.1275,-4.1329,-4.1351,-4.1322,-4.1291,-4.1217,-4.1209,-4.1143,-4.1123,-4.1089,-4.1065,-4.1012,0,0]},{"header":{"parameterUnit":"m.s-1","parameterCategory":1,"la1":30.2992,"la2":30.254,"lo1":-89.0895,"lo2":-89.0443,"dy":0.0025,"dx":0.0025,"nx":19,"ny":19,"refTime":"2026-05-23T09:00:00:Z","depth":0,"parameterNumber":3,"parameterNumberName":"V-component_of_WINDS"},"data":[0,0,0,2.438,2.4382,2.4507,2.4507,2.4657,2.4659,0,0,0,0,0,0,0,0,0,0,0,2.4339,2.434,2.4379,2.4382,2.4506,2.4507,2.4657,2.4659,0,0,0,0,0,0,0,0,0,0,0,2.4339,2.434,2.4341,2.4383,2.4506,2.4507,2.4657,2.4566,0,0,0,0,0,0,0,0,0,0,2.4446,2.4406,2.434,2.4341,2.4384,2.4506,2.4507,2.4561,2.4571,2.4598,0,2.4622,0,2.4643,2.4668,2.4669,0,0,0,2.4385,2.4398,2.4435,2.4341,2.4385,2.4506,2.4451,2.4567,2.4578,2.4611,2.4624,2.463,2.4645,2.4669,2.467,2.4818,2.4818,0,0,2.4378,2.436,2.4427,2.4442,2.4424,2.4447,2.4455,2.4574,2.4587,2.4625,2.4634,2.4648,2.467,2.4671,2.4817,2.4818,0,0,0,2.4357,2.4355,2.4389,2.4435,2.4459,2.4451,2.446,2.4581,2.4594,2.4635,2.4649,2.4671,2.4673,2.4817,2.4817,2.4829,0,0,0,2.4352,2.4342,2.4386,2.4376,2.4456,2.4522,2.4464,2.4586,2.46,2.4649,2.4671,2.4674,2.4816,2.4817,2.4828,2.4838,0,0,0,2.4332,2.434,2.4357,2.4374,2.4427,2.4521,2.454,2.4589,2.4608,2.4669,2.4674,2.4816,2.4817,2.4826,2.4836,2.4871,0,0,0,2.4305,2.4366,2.4357,2.443,2.4426,2.4527,2.454,2.4615,2.4669,2.4672,2.4816,2.4817,2.4826,2.4834,2.4869,2.4898,2.4908,0,0,2.4372,2.4373,2.4417,2.4413,2.4511,2.451,2.4609,2.4674,2.4696,2.4775,2.4779,2.4828,2.4835,2.4871,2.4972,2.498,0,0,0,2.4432,2.4464,2.4494,2.4544,2.4595,2.464,2.4692,2.4716,2.4784,2.4734,2.4851,2.4856,2.4877,2.4892,2.4899,2.4918,2.4823,2.4823,2.4823,2.4501,2.4525,2.4599,2.4638,2.4686,2.4739,2.4779,2.482,2.4831,2.4858,2.4882,2.4941,2.4957,2.4962,2.4982,2.4899,2.4899,2.4899,2.4899,2.46,2.4648,2.466,2.4736,2.476,2.4824,2.4875,2.488,2.4942,2.4925,2.4945,2.4924,2.497,2.4989,2.49,2.49,2.49,2.49,2.49,2.4648,2.4675,2.4703,2.4777,2.483,2.4867,2.4925,2.4945,2.4964,2.4984,2.5011,2.5011,2.5013,2.4995,2.4996,2.4996,2.4996,2.4996,2.4996,2.4687,2.4718,2.4766,2.4824,2.4858,2.4904,2.4956,2.4989,2.5031,2.504,2.5041,2.5048,2.497,2.495,2.5,2.4999,2.4999,2.4998,2.4998,2.478,2.4761,2.4835,2.4869,2.4937,2.4988,2.5012,2.5078,2.5108,2.5135,2.5138,2.5077,2.508,2.5075,2.5058,2.5133,2.5133,2.5133,2.5133,2.482,2.4823,2.4902,2.4954,2.5007,2.5036,2.5116,2.5155,2.5192,2.5212,2.5204,2.5183,2.5177,2.5184,2.5176,2.5161,2.526,2.526,2.526,2.4878,2.4887,2.4952,2.4989,2.5044,2.5089,2.5164,2.5222,2.5261,2.5266,2.5227,2.5222,2.519,2.5178,2.5183,2.5171,2.5144,0,0]}]]